Casper Hojlund

Chief Scout - FC Midtjylland
12 May 2028
Friday
Process

Personality

Adaptability (8) Ambition (14) Controversy (12) Loyalty (20) Pressure (19) Professionalism (18) Sportsmanship (3) Temperament (1)

Profile

Coaching Style Democratic
License Continental C
Determination 13
Man Management 8
Motivating 5
Discipline 5
Job Satisfaction
100%
Fatigue
0%
Role Chief Scout
Wage 17.9K p/w
Contract 14.03.2030

Performance

Behaviour Good
Training Effectiveness
49%
Player Development
60%
Injury Prevention
70%
Tactical Implementation
65%

Currently Monitoring

108
Player Club Status Ability Confidence Watched Last Observed Latest Vote
Thiago Almada River Plate Lost 139 / 144 40% 1 19.01.2028 -
Miguel Pereira Persebaya Lost 130 / 106 40% 1 19.01.2028 -
Facundo Torres Austin FC Lost 151 / 130 40% 1 19.01.2028 -
Duckens Nazon RC Strasbourg Active 115 / 115 67% 1 17.01.2028 Approve
Keny Arroyo Cruzeiro Active 135 / 122 40% 1 04.01.2028 -
Luis Sinisterra Cruzeiro Active 149 / 143 40% 1 04.01.2028 -
Heung-Min Son Millonarios Active 151 / 151 68% 1 01.01.2028 Approve
Denis Bouanga Nacional Active 134 / 134 67% 1 01.01.2028 Approve
Seedy Jatta Sturm Graz Active 118 / 122 67% 1 01.01.2028 Approve
Mateo Lizondo Colón Active 98 / 100 40% 2 27.08.2027 -
Mateo Peralta Danubio Active 100 / 120 40% 1 27.08.2027 -
George Paaku Hearts of Oak Active 98 / 94 40% 1 27.08.2027 -
Pablo Suárez Rentistas Active 96 / 112 40% 2 26.08.2027 -
Ian Wisdom Sporting Cristal Active 94 / 110 40% 1 26.08.2027 -
Manuel Kissanga Inter Allies Active 89 / 96 40% 1 26.08.2027 -
Vadim Arutyunyan Dnepr Mogilev Active 92 / 92 40% 1 25.08.2027 -
Musa Malik Ikorodu City Active 93 / 93 40% 1 24.08.2027 -
Afriyie Sulemana Hasaacas Active 104 / 98 40% 1 23.08.2027 -
Teo Rodríguez Pagano San Lorenzo Active 104 / 123 40% 1 23.08.2027 -
Rafael Vargas Cortulua Active 78 / 105 40% 1 23.08.2027 -
Elias Achouri San Diego Football Club Active 136 / 130 40% 1 21.08.2027 -
Imran Oulad Omar Dinamo Batumi Active 129 / 112 40% 1 21.08.2027 -
Dany Mota Monza Active 140 / 143 40% 5 20.08.2027 -
Kian Fitz-Jim Torino Active 144 / 140 40% 1 20.08.2027 -
Leonardo Sernicola Benevento Active 119 / 117 40% 1 20.08.2027 -
Andrea Colpani Monza Active 137 / 141 40% 1 18.08.2027 -
Boulaye Dia Lazio Active 135 / 144 40% 1 18.08.2027 -
Armand Laurienté Sassuolo Active 153 / 142 40% 2 17.08.2027 -
Álex Valle Como Active 136 / 142 40% 1 17.08.2027 -
Tomáš Suslov Hellas Verona Active 136 / 138 40% 1 17.08.2027 -
Idrissa Touré Monza Active 149 / 137 40% 1 16.08.2027 -
Filippo Ranocchia Palermo Active 140 / 137 40% 1 15.08.2027 -
Nicolás Paz San Martín SJ Active 118 / 121 40% 1 15.08.2027 -
Cesare Casadei Torino Active 126 / 140 40% 1 15.08.2027 -
Enrico Delprato Parma Active 133 / 134 40% 1 12.08.2027 -
Samuele Angori Pisa Active 125 / 147 40% 1 12.08.2027 -
Kelvin Flórez Udinese Active 132 / 130 40% 1 11.08.2027 -
Emanuele Adamo Spezia Active 131 / 119 40% 2 10.08.2027 -
Ethan Williams Peterborough United Active 118 / 125 40% 3 09.08.2027 -
Ronald Swansea City Active 135 / 139 40% 2 09.08.2027 -
Max Johnston Derby County Active 133 / 139 40% 1 09.08.2027 -
Alfie Gilchrist West Bromwich Albion Active 121 / 131 40% 1 09.08.2027 -
Brodie Spencer Oxford United Active 136 / 127 40% 1 09.08.2027 -
Myles Peart-Harris Bristol Rovers Active 120 / 130 40% 1 09.08.2027 -
Malik Mothersille Stockport County Active 125 / 113 40% 3 08.08.2027 -
Armando Dobra Chesterfield Active 114 / 109 40% 3 08.08.2027 -
Todd Cantwell Blackburn Rovers Active 143 / 128 40% 3 08.08.2027 -
Jack Rudoni Coventry City Active 128 / 135 40% 2 07.08.2027 -
Isaak Davies Cardiff City Active 118 / 116 40% 3 05.08.2027 -
Sorba Thomas Stoke City Active 125 / 142 40% 3 05.08.2027 -
Saša Lukić Ipswich Town Active 157 / 140 40% 1 05.08.2027 -
Mathias Jørgensen Blackburn Rovers Active 136 / 114 40% 1 04.08.2027 -
Ali Ahmed Norwich City Active 129 / 127 40% 1 04.08.2027 -
Caspar Jander Southampton Active 132 / 135 40% 1 03.08.2027 -
Jesús Vázquez Valencia Active 132 / 138 40% 1 03.08.2027 -
Oladapo Afolayan Blackburn Rovers Active 122 / 117 40% 1 03.08.2027 -
Tyrese Campbell Sheffield United Active 123 / 122 40% 2 02.08.2027 -
Samuel Edozie Southampton Active 123 / 137 40% 2 02.08.2027 -
Koki Saito Queens Park Rangers Active 142 / 135 40% 2 31.07.2027 -
Tyler Goodrham Oxford United Active 130 / 134 40% 1 30.07.2027 -
Florentino Luís Ipswich Town Active 145 / 143 40% 1 27.07.2027 -
Milan van Ewijk Coventry City Active 130 / 137 40% 1 27.07.2027 -
Sidiki Chérif Coventry City Active 121 / 137 40% 1 26.07.2027 -
Joseph Opoku Swansea City Active 115 / 124 40% 1 26.07.2027 -
Aaron Connolly Leyton Orient Active 132 / 116 40% 1 24.07.2027 -
Wilfried Gnonto Leeds United Active 150 / 135 40% 1 24.07.2027 -
Aaron Collins Milton Keynes Dons Active 108 / 113 40% 3 23.07.2027 -
Kieran Dowell Hull City Active 139 / 118 40% 1 22.07.2027 -
Alex Robertson Cardiff City Active 116 / 129 40% 1 22.07.2027 -
Isaiah Jones Luton Town Active 143 / 121 40% 2 21.07.2027 -
Aurèle Amenda Coventry City Active 150 / 139 40% 1 20.07.2027 -
Brooke Norton-Cuffy Genoa Active 143 / 140 40% 1 20.07.2027 -
Tomáš Rigo Stoke City Active 139 / 130 40% 1 17.07.2027 -
Mohamed Belloumi Hull City Active 151 / 147 40% 1 17.07.2027 -
Ar'jany Martha Rotherham United Active 118 / 114 40% 2 16.07.2027 -
Mark Sykes Millwall Active 129 / 132 40% 1 15.07.2027 -
Ryan Wintle Milton Keynes Dons Active 128 / 123 40% 1 15.07.2027 -
Lewis Bate Stockport County Active 118 / 123 40% 1 14.07.2027 -
Sam Bell Bristol City Active 119 / 123 40% 2 11.07.2027 -
Ollie O'Neill Leyton Orient Active 107 / 122 40% 1 11.07.2027 -
Patrick Maswanganyi Orlando Pirates Active 110 / 120 40% 1 10.07.2027 -
Ben Wiles Milton Keynes Dons Active 118 / 110 40% 1 10.07.2027 -
Luca Connell Barnsley Active 113 / 107 40% 1 09.07.2027 -
Alex Lowry Wycombe Wanderers Active 133 / 126 40% 1 08.07.2027 -
Kanya Fujimoto Birmingham Active 123 / 125 40% 2 29.06.2027 -
Stiven Shpendi Empoli Active 114 / 130 40% 1 29.06.2027 -
Rúben Rodrigues Bolton Wanderers Active 129 / 111 40% 1 28.06.2027 -
Fred Onyedinma Bradford City Active 124 / 125 40% 1 27.06.2027 -
Christian Saydee Wigan Athletic Active 120 / 109 40% 1 23.06.2027 -
Sergio Rodelas Granada Active 128 / 124 40% 1 23.06.2027 -
Gabriel Strefezza Palermo Active 142 / 132 40% 1 21.06.2027 -
Dylan Levitt Leyton Orient Active 117 / 112 40% 1 21.06.2027 -
Salah Mohsen El Masry Active 128 / 109 40% 1 19.06.2027 -
Sipho Mbule Asante Kotoko Active 123 / 111 40% 1 17.06.2027 -
Mathias Kvistgaarden Norwich City Active 107 / 119 40% 1 15.06.2027 -
Chem Campbell Stevenage Active 115 / 110 40% 1 06.06.2027 -
Sonny Carey Charlton Athletic Active 111 / 117 40% 1 06.06.2027 -
Edoardo Soleri Sampdoria Active 133 / 123 40% 1 02.06.2027 -
Soufiane Benjdida Malmo FF Active 121 / 122 68% 1 01.06.2027 Approve
Alexander Lyng SonderjyskE Active 109 / 123 40% 1 24.08.2026 -
Donavan Phillip Colorado Rapids Active 103 / 100 40% 1 21.08.2026 -
Ezekiel Kwame Alladoh Philadelphia Union Active 127 / 123 40% 1 20.08.2026 -
Mikkel Kallesøe Aalborg Active 99 / 99 58% 1 17.08.2026 -
Youssoufa Moukoko FC Copenhagen Active 113 / 121 40% 1 17.08.2026 -
Marco Bruhn Hobro Active 78 / 100 40% 1 14.08.2026 -
Lévy Néne FC Nordsjaelland Active 116 / 116 40% 1 11.08.2026 -
Justin-Noël Kalumba Mallorca Active 115 / 112 40% 1 03.08.2026 -
Thapelo Maseko FC Copenhagen Active 116 / 124 40% 1 01.08.2026 -